Location: Courçay
(47.2523°N, 0.8761°E)
Time: 02:40:51
(UTC+00:00)

Timation 1 Rocket - Pass Details

Date: 18 November 2025
Orbit: 898 x 905 km, 70.0° (Epoch: 04 December)

Event Time Altitude Azimuth Distance (km) Brightness Sun altitude
Rises 16:50:07 0° 333° (NNW) 3,528 7.5 -5.8°
Reaches altitude 10° 16:52:42 10° 338° (NNW) 2,585 6.8 -6.2°
Maximum altitude 16:58:32 54° 55° (NE) 1,084 4.5 -7.1°
Drops below altitude 10° 17:04:22 10° 133° (SE) 2,574 6.5 -8.0°
Sets 17:06:55 0° 138° (SE) 3,512 7.2 -8.4°
